Home   Weather   Buchs   Past weeks

Flag for Switzerland Past Weather in Buchs, St. Gallen, Switzerland — Yesterday and Last 2 Weeks

Now
61 °F

Cool.


Feels Like: 61 °F
Forecast: 57 / 85 °F
Wind: 7 mph from Southeast

Location: Vaduz

Current Time: May 27, 2017 at 8:28:17 am

Latest Report: May 27, 2017 at 7:00 am


Visibility: N/A

Pressure: 30.12 "Hg

Humidity: 61%

Dew Point: 47 °F

Location of BuchsLocation

Past Weather in Buchs — Graph

°F

Buchs Temperature Yesterday

Maximum temperature yesterday: 78 °F (at 5:00 pm)
Minimum temperature yesterday: 48 °F (at 7:00 am)
Average temperature yesterday: 63 °F

High & Low Weather Summary for the Past Weeks

 TemperatureHumidityPressure
High80 °F (May 17, 5:00 pm)96% (May 20, 4:00 am)30.46 "Hg (May 20, 4:00 am)
Low42 °F (May 20, 5:00 am)28% (May 18, 10:00 pm)29.58 "Hg (May 12, 4:00 pm)
Average62 °F63%30.10 "Hg
* Reported May 12 6:00 am — May 27 6:00 am, Buchs. Weather by CustomWeather, © 2017

Note: Actual official high and low records may vary slightly from our data, if they occured in-between our weather recording intervals... More about our weather records

Advertising

Buchs Weather History for the Previous 24 Hours

Scroll right to see more
 ConditionsComfort  
Time TempWeatherWind HumidityBarometerVisibility
6:00 am
Sat, May 27
62 °FMild.6 mph57%30.09 "HgN/A
5:00 am61 °FFog.6 mph61%30.09 "Hg6 mi
4:00 am63 °FMild.5 mph57%30.07 "HgN/A
3:00 am64 °FMild.5 mph57%30.07 "HgN/A
2:00 am54 °FCool.2 mph85%30.10 "HgN/A
1:00 am57 °FCool.1 mph79%30.10 "HgN/A
12:00 am58 °FCool.2 mph76%30.09 "HgN/A
11:00 pm
Fri, May 26
62 °FFog.No wind65%30.06 "Hg6 mi
10:00 pm65 °FMild.1 mph56%30.04 "HgN/A
9:00 pm71 °FMild.3 mph42%30.00 "HgN/A
8:00 pm75 °FFog.8 mph36%29.97 "Hg6 mi
7:00 pm77 °FMild.8 mph36%29.96 "HgN/A
5:00 pm78 °FSunny.9 mph33%29.96 "Hg7 mi
4:00 pm78 °FPleasantly warm.10 mph37%29.97 "HgN/A
3:00 pm77 °FWarm.8 mph43%29.99 "HgN/A
2:00 pm76 °FSunny.9 mph42%30.01 "Hg7 mi
1:00 pm73 °FMild.8 mph48%30.04 "HgN/A
12:00 pm71 °FMild.7 mph50%30.06 "HgN/A
11:00 am67 °FSunny.3 mph48%30.08 "Hg6 mi
10:00 am64 °FMild.1 mph53%30.10 "HgN/A
9:00 am60 °FCool.1 mph66%30.12 "HgN/A
8:00 am51 °FSunny.No wind90%30.14 "Hg4 mi
Weather by CustomWeather, © 2017

See weather overviewHow to use our weather pages